Location: Dos Palmas
(32.4468°N, 116.8732°W)
Time: 01:40:44
(UTC+00:00)

Meteor 1-24 Rocket - Pass Details

Date: 01 November 2021
Orbit: 790 x 927 km, 81.3° (Epoch: 07 December)

Event Time Altitude Azimuth Distance (km) Brightness Sun altitude
Rises 11:15:20 0° 157° (SSE) 3,287 7.0 -36.2°
Reaches altitude 10° 11:18:01 10° 145° (SE) 2,374 6.3 -35.7°
Maximum altitude 11:22:24 26° 89° (E) 1,548 5.6 -34.7°
Drops below altitude 10° 11:26:54 10° 34° (NE) 2,446 6.5 -33.8°
Sets 11:29:41 0° 23° (NNE) 3,407 7.2 -33.2°
